{"data":{"norad_id":65607,"intl_designator":"2025-207R","name":"STARLINK-35156","alt_names":[],"object_type":"PAYLOAD","status":"ACTIVE","operator":null,"country":"US","launch_date":"2025-09-13","launch_site_code":"AFWTR","launch_vehicle":null,"mission":null,"orbit_class":"UNKNOWN","rcs_meters":null,"size_class":null,"mass_kg":null,"dimensions":null,"purposes":["comms"],"wikipedia_slug":null,"has_3d_model":false,"image_url":null,"decayed_at":null,"tle_current":{"epoch":"2026-05-25T02:27:55.254240Z","epoch_age_seconds":60063,"freshness":"FRESH","line1":"1 65607U 25207R   26145.10272285  .00004700  00000+0  32949-3 0  9995","line2":"2 65607  97.4469 213.6836 0002997 142.7955 217.3481 15.05659572 39760","mean_motion":15.05659572,"eccentricity":0.0002997,"inclination_deg":97.4469,"raan_deg":213.6836,"arg_perigee_deg":142.7955,"mean_anomaly_deg":217.3481,"bstar":0.00032949,"rev_number":3976,"period_min":95.639148900519,"perigee_km":547.40558568137,"apogee_km":551.55800038591,"semimajor_km":6927.6187930336,"source":"CELESTRAK","updated_at":"2026-05-25T13:38:20.855215Z"}}}